START_TIME,STEP,MOV.,M29,t_acc.,H22,t_acc.,H26,t_acc.,H30,t_acc.
1979-08-07 09:00:30.400 ,0,0,0.,24.0,0.,24.0,0.,24.0,0.,24.0
1979-08-07 09:00:54.400 ,0,1,0.,24.0,0.,24.0,0.,24.0,0.,24.0
1979-08-07 09:01:18.400 ,0,0,2.,24.0,0.,24.0,0.,24.0,0.,24.0
1979-08-07 09:01:42.400 ,1,1,0.,24.0,0.,24.0,0.,24.0,0.,24.0
1979-08-07 09:02:06.400 ,1,0,0.,24.0,0.,24.0,0.,24.0,0.,24.0
1979-08-07 09:02:54.400 ,2,0,0.,24.0,0.,24.0,0.,24.0,0.,24.0
1979-08-07 09:03:18.400 ,3,1,0.,24.0,0.,24.0,0.,24.0,0.,24.0
1979-08-07 09:03:42.400 ,3,0,0.,24.0,0.,24.0,0.,24.0,0.,24.0
1979-08-07 09:04:06.400 ,4,1,0.,24.0,0.,24.0,0.,24.0,0.,24.0
1979-08-07 09:04:30.400 ,4,0,0.,24.0,0.,24.0,0.,24.0,0.,24.0
1979-08-07 09:04:54.400 ,5,1,0.,24.0,0.,24.0,0.,24.0,0.,24.0
1979-08-07 09:05:18.400 ,5,0,0.,24.0,0.,24.0,0.,24.0,0.,24.0
1979-08-07 09:05:42.400 ,6,1,0.,24.0,0.,24.0,0.,24.0,0.,24.0
1979-08-07 09:06:06.400 ,6,0,0.,24.0,0.,24.0,0.,24.0,0.,24.0
1979-08-07 09:06:30.400 ,7,0,0.,24.0,0.,24.0,0.,24.0,0.,24.0
1979-08-07 09:06:54.400 ,7,0,0.,24.0,0.,24.0,0.,24.0,0.,24.0
1979-08-07 09:07:18.400 ,5,1,0.,24.0,0.,24.0,0.,24.0,0.,24.0
1979-08-07 09:07:42.400 ,1,1,0.,24.0,0.,24.0,0.,24.0,0.,24.0
1979-08-07 09:08:06.400 ,2,1,0.,24.0,0.,24.0,0.,24.0,0.,24.0
1979-08-07 09:08:30.400 ,6,1,0.,24.0,0.,24.0,0.,24.0,0.,24.0
1979-08-07 09:08:54.400 ,5,1,0.,24.0,0.,24.0,0.,24.0,0.,24.0
1979-08-07 09:09:18.400 ,1,1,0.,24.0,0.,24.0,0.,24.0,0.,24.0
1979-08-07 09:09:42.400 ,2,1,0.,24.0,0.,24.0,0.,24.0,0.,24.0
1979-08-07 09:10:06.400 ,6,1,0.,24.0,0.,24.0,0.,24.0,0.,24.0
1979-08-07 09:10:30.400 ,5,1,0.,24.0,0.,24.0,0.,24.0,0.,24.0
1979-08-07 09:10:54.400 ,1,1,0.,24.0,0.,24.0,0.,24.0,0.,24.0
1979-08-07 09:11:18.400 ,2,1,0.,24.0,0.,24.0,0.,24.0,0.,24.0
1979-08-07 09:11:42.400 ,6,1,0.,24.0,0.,24.0,0.,24.0,0.,24.0
1979-08-07 09:12:06.400 ,5,1,0.,24.0,0.,24.0,0.,24.0,0.,24.0
1979-08-07 09:12:30.400 ,1,1,0.,24.0,0.,24.0,0.,24.0,0.,24.0
1979-08-07 09:12:54.400 ,2,1,0.,24.0,0.,24.0,0.,24.0,0.,24.0
1979-08-07 09:13:18.400 ,6,1,0.,24.0,0.,24.0,0.,24.0,0.,24.0
1979-08-07 09:13:42.400 ,5,1,0.,24.0,0.,24.0,0.,24.0,0.,24.0
1979-08-07 09:14:06.400 ,1,1,0.,24.0,0.,24.0,0.,24.0,0.,24.0
1979-08-07 09:14:30.400 ,2,1,0.,24.0,0.,24.0,0.,24.0,0.,24.0
1979-08-07 09:14:54.400 ,6,1,0.,24.0,0.,24.0,0.,24.0,0.,24.0
1979-08-07 09:15:18.400 ,5,1,0.,24.0,0.,24.0,0.,24.0,0.,24.0
1979-08-07 09:15:42.400 ,1,1,0.,24.0,0.,24.0,0.,24.0,0.,24.0
1979-08-07 09:16:06.400 ,2,1,0.,24.0,0.,24.0,0.,24.0,0.,24.0
1979-08-07 09:16:30.400 ,6,1,0.,24.0,0.,24.0,0.,24.0,0.,24.0
1979-08-07 09:16:54.400 ,5,1,0.,24.0,0.,24.0,0.,24.0,0.,24.0
1979-08-07 09:17:18.400 ,1,1,0.,24.0,0.,24.0,0.,24.0,0.,24.0
1979-08-07 09:17:42.400 ,0,0,0.,24.0,0.,24.0,0.,24.0,0.,24.0
1979-08-07 09:18:06.400 ,0,0,0.,24.0,0.,24.0,0.,24.0,0.,24.0
1979-08-07 09:18:30.400 ,5,1,0.,24.0,0.,24.0,0.,24.0,0.,24.0
1979-08-07 09:18:54.400 ,5,0,0.,24.0,0.,24.0,0.,24.0,0.,24.0
1979-08-07 09:19:18.400 ,4,1,0.,24.0,0.,24.0,0.,24.0,0.,24.0
1979-08-07 09:19:42.400 ,4,0,0.,24.0,0.,24.0,0.,24.0,0.,24.0
1979-08-07 09:20:06.400 ,3,1,0.,24.0,0.,24.0,0.,24.0,0.,24.0
1979-08-07 09:20:30.400 ,3,0,0.,24.0,0.,24.0,0.,24.0,0.,24.0
1979-08-07 09:20:54.400 ,2,1,0.,24.0,0.,24.0,0.,24.0,0.,24.0
1979-08-07 09:21:18.400 ,2,0,1.,24.0,0.,24.0,0.,24.0,0.,24.0
1979-08-07 09:21:42.400 ,1,1,0.,24.0,0.,24.0,0.,24.0,0.,24.0
1979-08-07 09:22:06.400 ,1,0,0.,24.0,0.,24.0,0.,24.0,0.,24.0
1979-08-07 09:22:30.400 ,0,1,0.,24.0,0.,24.0,0.,24.0,0.,24.0
1979-08-07 09:22:54.400 ,0,0,0.,24.0,0.,24.0,0.,24.0,0.,24.0
1979-08-07 09:23:18.400 ,0,1,0.,24.0,0.,24.0,0.,24.0,0.,24.0
1979-08-07 09:23:42.400 ,0,0,0.,24.0,0.,24.0,0.,24.0,0.,24.0
1979-08-07 09:24:06.400 ,1,1,0.,24.0,0.,24.0,0.,24.0,0.,24.0
1979-08-07 09:24:30.400 ,1,0,0.,24.0,0.,24.0,0.,24.0,0.,24.0
1979-08-07 09:24:54.400 ,2,1,0.,24.0,0.,24.0,0.,24.0,0.,24.0
1979-08-07 09:25:18.400 ,2,0,0.,24.0,0.,24.0,0.,24.0,0.,24.0
1979-08-07 09:25:42.400 ,3,1,0.,24.0,0.,24.0,0.,24.0,0.,24.0
1979-08-07 09:26:06.400 ,3,0,0.,24.0,0.,24.0,0.,24.0,0.,24.0
1979-08-07 09:26:30.400 ,4,1,0.,24.0,0.,24.0,0.,24.0,0.,24.0
1979-08-07 09:26:54.400 ,4,0,0.,24.0,0.,24.0,0.,24.0,0.,24.0
1979-08-07 09:27:18.400 ,5,1,0.,24.0,0.,24.0,0.,24.0,0.,24.0
1979-08-07 09:27:42.400 ,5,0,0.,24.0,0.,24.0,0.,24.0,0.,24.0
1979-08-07 09:28:06.400 ,6,1,0.,24.0,0.,24.0,0.,24.0,0.,24.0
1979-08-07 09:28:30.400 ,6,0,0.,24.0,0.,24.0,0.,24.0,0.,24.0
1979-08-07 09:28:54.400 ,7,1,0.,24.0,0.,24.0,0.,24.0,0.,24.0
1979-08-07 09:29:18.400 ,7,0,0.,24.0,0.,24.0,0.,24.0,0.,24.0
1979-08-07 09:29:42.400 ,7,1,0.,24.0,0.,24.0,0.,24.0,0.,24.0
1979-08-07 09:30:06.400 ,7,0,0.,24.0,0.,24.0,0.,24.0,0.,24.0
1979-08-07 09:30:30.400 ,6,1,0.,24.0,0.,24.0,0.,24.0,0.,24.0
1979-08-07 09:30:54.400 ,6,0,0.,24.0,0.,24.0,0.,24.0,0.,24.0
1979-08-07 09:31:18.400 ,5,1,0.,24.0,0.,24.0,0.,24.0,0.,24.0
1979-08-07 09:31:42.400 ,5,0,0.,24.0,0.,24.0,0.,24.0,0.,24.0
1979-08-07 09:32:06.400 ,4,1,0.,24.0,0.,24.0,0.,24.0,0.,24.0
1979-08-07 09:32:30.400 ,4,0,0.,24.0,0.,24.0,0.,24.0,0.,24.0
1979-08-07 09:32:54.400 ,3,1,0.,24.0,0.,24.0,0.,24.0,0.,24.0
1979-08-07 09:33:18.400 ,3,0,1.,24.0,0.,24.0,0.,24.0,0.,24.0
1979-08-07 09:33:42.400 ,2,1,0.,24.0,0.,24.0,0.,24.0,0.,24.0
1979-08-07 09:34:06.400 ,2,0,1.,24.0,0.,24.0,0.,24.0,0.,24.0
1979-08-07 09:34:30.400 ,1,1,0.,24.0,0.,24.0,0.,24.0,1.,24.0
1979-08-07 09:34:54.400 ,1,0,0.,24.0,0.,24.0,0.,24.0,0.,24.0
1979-08-07 09:35:18.400 ,0,1,0.,24.0,0.,24.0,0.,24.0,0.,24.0
1979-08-07 09:35:42.400 ,0,0,0.,24.0,0.,24.0,0.,24.0,0.,24.0
1979-08-07 09:36:06.400 ,0,1,0.,24.0,0.,24.0,0.,24.0,0.,24.0
1979-08-07 09:36:30.400 ,0,0,0.,24.0,0.,24.0,0.,24.0,0.,24.0
1979-08-07 09:36:54.400 ,1,1,0.,24.0,0.,24.0,0.,24.0,0.,24.0
1979-08-07 09:37:18.400 ,1,0,0.,24.0,0.,24.0,0.,24.0,0.,24.0
1979-08-07 09:37:42.400 ,2,1,0.,24.0,0.,24.0,0.,24.0,0.,24.0
1979-08-07 09:38:06.400 ,2,0,0.,24.0,0.,24.0,0.,24.0,0.,24.0
1979-08-07 09:38:30.400 ,3,1,0.,24.0,0.,24.0,0.,24.0,0.,24.0
1979-08-07 09:38:54.400 ,3,0,0.,24.0,0.,24.0,0.,24.0,0.,24.0
1979-08-07 09:39:18.400 ,4,1,0.,24.0,0.,24.0,0.,24.0,0.,24.0
1979-08-07 09:39:42.400 ,4,0,0.,24.0,0.,24.0,0.,24.0,0.,24.0
1979-08-07 09:40:06.400 ,5,1,0.,24.0,0.,24.0,0.,24.0,0.,24.0
1979-08-07 09:40:30.400 ,5,0,0.,24.0,0.,24.0,0.,24.0,0.,24.0
1979-08-07 09:40:54.400 ,6,1,0.,24.0,0.,24.0,0.,24.0,0.,24.0
1979-08-07 09:41:18.400 ,6,0,0.,24.0,0.,24.0,0.,24.0,0.,24.0
1979-08-07 09:41:42.400 ,7,1,0.,24.0,0.,24.0,0.,24.0,0.,24.0
1979-08-07 09:42:06.400 ,7,0,0.,24.0,0.,24.0,0.,24.0,0.,24.0
1979-08-07 09:42:30.400 ,7,1,0.,24.0,0.,24.0,0.,24.0,0.,24.0
1979-08-07 09:42:54.400 ,7,0,0.,24.0,0.,24.0,0.,24.0,0.,24.0
1979-08-07 09:43:18.400 ,6,1,0.,24.0,0.,24.0,0.,24.0,0.,24.0
1979-08-07 09:43:42.400 ,6,0,0.,24.0,0.,24.0,0.,24.0,0.,24.0
1979-08-07 09:44:06.400 ,5,1,0.,24.0,0.,24.0,0.,24.0,0.,24.0
1979-08-07 09:44:30.400 ,5,0,0.,24.0,0.,24.0,0.,24.0,0.,24.0
1979-08-07 09:44:54.400 ,4,1,0.,24.0,0.,24.0,0.,24.0,0.,24.0
1979-08-07 09:45:18.400 ,4,0,0.,24.0,0.,24.0,0.,24.0,0.,24.0
1979-08-07 09:45:42.400 ,3,1,0.,24.0,0.,24.0,0.,24.0,0.,24.0
1979-08-07 09:46:06.400 ,3,0,0.,24.0,0.,24.0,0.,24.0,0.,24.0
1979-08-07 09:46:30.400 ,2,1,0.,24.0,0.,24.0,0.,24.0,0.,24.0
1979-08-07 09:46:54.400 ,2,0,0.,24.0,0.,24.0,0.,24.0,0.,24.0
1979-08-07 09:47:18.400 ,1,1,0.,24.0,0.,24.0,0.,24.0,0.,24.0
1979-08-07 09:47:42.400 ,1,0,0.,24.0,0.,24.0,0.,24.0,0.,24.0
1979-08-07 09:48:06.400 ,0,1,0.,24.0,0.,24.0,0.,24.0,0.,24.0
1979-08-07 09:48:30.400 ,0,0,0.,24.0,0.,24.0,0.,24.0,0.,24.0
1979-08-07 09:48:54.400 ,0,1,0.,24.0,0.,24.0,0.,24.0,0.,24.0
1979-08-07 09:49:18.400 ,0,0,0.,24.0,0.,24.0,0.,24.0,0.,24.0
1979-08-07 09:49:42.400 ,1,1,0.,24.0,0.,24.0,0.,24.0,0.,24.0
1979-08-07 09:50:06.400 ,1,0,0.,24.0,0.,24.0,0.,24.0,0.,24.0
1979-08-07 09:50:30.400 ,2,1,0.,24.0,0.,24.0,0.,24.0,0.,24.0
1979-08-07 09:50:54.400 ,2,0,0.,24.0,0.,24.0,0.,24.0,0.,24.0
1979-08-07 09:51:18.400 ,3,1,0.,24.0,0.,24.0,0.,24.0,0.,24.0
1979-08-07 09:51:42.400 ,3,0,0.,24.0,0.,24.0,0.,24.0,0.,24.0
1979-08-07 09:52:06.400 ,4,1,0.,24.0,0.,24.0,0.,24.0,0.,24.0
1979-08-07 09:52:30.400 ,4,0,0.,24.0,0.,24.0,0.,24.0,0.,24.0
1979-08-07 09:52:54.400 ,5,1,0.,24.0,0.,24.0,0.,24.0,0.,24.0
1979-08-07 09:53:18.400 ,5,0,0.,24.0,0.,24.0,0.,24.0,0.,24.0
1979-08-07 09:53:42.400 ,6,1,1.,24.0,0.,24.0,0.,24.0,0.,24.0
1979-08-07 09:54:06.400 ,6,0,0.,24.0,0.,24.0,0.,24.0,0.,24.0
1979-08-07 09:54:30.400 ,7,0,0.,24.0,0.,24.0,0.,24.0,0.,24.0
1979-08-07 09:54:54.400 ,7,0,0.,24.0,0.,24.0,0.,24.0,0.,24.0
1979-08-07 09:55:18.400 ,5,1,0.,24.0,0.,24.0,0.,24.0,0.,24.0
1979-08-07 09:55:42.400 ,1,1,0.,24.0,0.,24.0,0.,24.0,0.,24.0
1979-08-07 09:56:06.400 ,2,1,0.,24.0,0.,24.0,0.,24.0,0.,24.0
1979-08-07 09:56:30.400 ,6,1,0.,24.0,0.,24.0,0.,24.0,0.,24.0
1979-08-07 09:56:54.400 ,5,1,0.,24.0,0.,24.0,0.,24.0,0.,24.0
1979-08-07 09:57:18.400 ,1,1,0.,24.0,0.,24.0,0.,24.0,0.,24.0
1979-08-07 09:57:42.400 ,2,1,0.,24.0,0.,24.0,0.,24.0,0.,24.0
1979-08-07 09:58:06.400 ,6,1,0.,24.0,0.,24.0,0.,24.0,0.,24.0
1979-08-07 09:58:30.400 ,5,1,0.,24.0,0.,24.0,0.,24.0,0.,24.0
1979-08-07 09:58:54.400 ,1,1,0.,24.0,0.,24.0,0.,24.0,0.,24.0
1979-08-07 09:59:18.400 ,2,1,0.,24.0,0.,24.0,0.,24.0,0.,24.0
1979-08-07 09:59:42.400 ,6,1,0.,24.0,0.,24.0,0.,24.0,0.,24.0
1979-08-07 10:00:06.400 ,5,1,0.,24.0,0.,24.0,0.,24.0,0.,24.0
1979-08-07 10:00:30.400 ,1,1,0.,24.0,0.,24.0,0.,24.0,0.,24.0
1979-08-07 10:00:54.400 ,2,1,0.,24.0,0.,24.0,0.,24.0,0.,24.0
1979-08-07 10:01:18.400 ,6,1,0.,24.0,0.,24.0,0.,24.0,0.,24.0
1979-08-07 10:01:42.400 ,5,1,0.,24.0,0.,24.0,0.,24.0,0.,24.0
1979-08-07 10:02:06.400 ,1,1,0.,24.0,0.,24.0,0.,24.0,0.,24.0
1979-08-07 10:02:30.400 ,2,1,0.,24.0,0.,24.0,0.,24.0,0.,24.0
1979-08-07 10:02:54.400 ,6,1,0.,24.0,0.,24.0,0.,24.0,0.,24.0
1979-08-07 10:03:18.400 ,5,1,0.,24.0,0.,24.0,0.,24.0,0.,24.0
1979-08-07 10:03:42.400 ,1,1,0.,24.0,0.,24.0,0.,24.0,0.,24.0
1979-08-07 10:04:06.400 ,2,1,0.,24.0,0.,24.0,0.,24.0,0.,24.0
1979-08-07 10:04:30.400 ,6,1,0.,24.0,0.,24.0,0.,24.0,0.,24.0
1979-08-07 10:04:54.400 ,5,1,0.,24.0,0.,24.0,0.,24.0,0.,24.0
1979-08-07 10:05:18.400 ,1,1,0.,24.0,0.,24.0,0.,24.0,0.,24.0
1979-08-07 10:05:42.400 ,0,0,0.,24.0,0.,24.0,0.,24.0,0.,24.0
1979-08-07 10:06:06.400 ,0,0,0.,24.0,0.,24.0,0.,24.0,0.,24.0
1979-08-07 10:06:30.400 ,5,1,0.,24.0,0.,24.0,0.,24.0,0.,24.0
1979-08-07 10:06:54.400 ,5,0,0.,24.0,0.,24.0,0.,24.0,0.,24.0
1979-08-07 10:07:18.400 ,4,1,0.,24.0,0.,24.0,0.,24.0,0.,24.0
1979-08-07 10:07:42.400 ,4,0,0.,24.0,0.,24.0,0.,24.0,0.,24.0
1979-08-07 10:08:06.400 ,3,1,0.,24.0,0.,24.0,0.,24.0,0.,24.0
1979-08-07 10:08:30.400 ,3,0,0.,24.0,0.,24.0,0.,24.0,0.,24.0
1979-08-07 10:08:54.400 ,2,1,1.,24.0,0.,24.0,0.,24.0,0.,24.0
1979-08-07 10:09:18.400 ,2,0,0.,24.0,0.,24.0,0.,24.0,0.,24.0
1979-08-07 10:09:42.400 ,1,1,0.,24.0,0.,24.0,0.,24.0,0.,24.0
1979-08-07 10:10:06.400 ,1,0,0.,24.0,0.,24.0,0.,24.0,0.,24.0
1979-08-07 10:10:30.400 ,0,1,0.,24.0,0.,24.0,0.,24.0,0.,24.0
1979-08-07 10:10:54.400 ,0,0,0.,24.0,0.,24.0,0.,24.0,0.,24.0
1979-08-07 10:11:18.400 ,0,1,0.,24.0,0.,24.0,0.,24.0,0.,24.0
1979-08-07 10:11:42.400 ,0,0,0.,24.0,0.,24.0,0.,24.0,0.,24.0
1979-08-07 10:12:06.400 ,1,1,0.,24.0,0.,24.0,0.,24.0,0.,24.0
1979-08-07 10:12:30.400 ,1,0,0.,24.0,0.,24.0,0.,24.0,0.,24.0
1979-08-07 10:12:54.400 ,2,1,0.,24.0,0.,24.0,0.,24.0,0.,24.0
1979-08-07 10:13:18.400 ,2,0,0.,24.0,0.,24.0,0.,24.0,0.,24.0
1979-08-07 10:13:42.400 ,3,1,0.,24.0,0.,24.0,0.,24.0,0.,24.0
1979-08-07 10:14:06.400 ,3,0,0.,24.0,0.,24.0,0.,24.0,0.,24.0
1979-08-07 10:14:30.400 ,4,1,0.,24.0,0.,24.0,0.,24.0,0.,24.0
1979-08-07 10:14:54.400 ,4,0,0.,24.0,0.,24.0,0.,24.0,0.,24.0
1979-08-07 10:15:18.400 ,5,1,0.,24.0,0.,24.0,0.,24.0,0.,24.0
1979-08-07 10:15:42.400 ,5,0,0.,24.0,0.,24.0,0.,24.0,0.,24.0
1979-08-07 10:16:06.400 ,6,1,0.,24.0,0.,24.0,0.,24.0,0.,24.0
1979-08-07 10:16:30.400 ,6,0,0.,24.0,0.,24.0,0.,24.0,0.,24.0
1979-08-07 10:16:54.400 ,7,1,0.,24.0,0.,24.0,0.,24.0,0.,24.0
1979-08-07 10:17:18.400 ,7,0,0.,24.0,0.,24.0,0.,24.0,0.,24.0
1979-08-07 10:17:42.400 ,7,1,0.,24.0,0.,24.0,0.,24.0,0.,24.0
1979-08-07 10:18:06.400 ,7,0,0.,24.0,0.,24.0,0.,24.0,0.,24.0
1979-08-07 10:18:30.400 ,6,1,0.,24.0,0.,24.0,0.,24.0,0.,24.0
1979-08-07 10:18:54.400 ,6,0,0.,24.0,0.,24.0,0.,24.0,0.,24.0
1979-08-07 10:19:18.400 ,5,1,0.,24.0,0.,24.0,0.,24.0,0.,24.0
1979-08-07 10:19:42.400 ,5,0,0.,24.0,0.,24.0,0.,24.0,0.,24.0
1979-08-07 10:20:06.400 ,4,1,0.,24.0,0.,24.0,0.,24.0,0.,24.0
1979-08-07 10:20:30.400 ,4,0,0.,24.0,0.,24.0,0.,24.0,0.,24.0
1979-08-07 10:20:54.400 ,3,1,0.,24.0,0.,24.0,0.,24.0,0.,24.0
1979-08-07 10:21:18.400 ,3,0,0.,24.0,0.,24.0,0.,24.0,0.,24.0
1979-08-07 10:21:42.400 ,2,1,0.,24.0,0.,24.0,0.,24.0,0.,24.0
1979-08-07 10:22:06.400 ,2,0,0.,24.0,0.,24.0,0.,24.0,0.,24.0
1979-08-07 10:22:30.400 ,1,1,0.,24.0,0.,24.0,0.,24.0,0.,24.0
1979-08-07 10:22:54.400 ,1,0,0.,24.0,0.,24.0,0.,24.0,0.,24.0
1979-08-07 10:23:18.400 ,0,1,0.,24.0,0.,24.0,0.,24.0,0.,24.0
1979-08-07 10:23:42.400 ,0,0,0.,24.0,0.,24.0,0.,24.0,0.,24.0
1979-08-07 10:24:06.400 ,0,1,0.,24.0,0.,24.0,0.,24.0,0.,24.0
1979-08-07 10:24:30.400 ,0,0,0.,24.0,0.,24.0,0.,24.0,0.,24.0
1979-08-07 10:24:54.400 ,1,1,0.,24.0,0.,24.0,0.,24.0,0.,24.0
1979-08-07 10:25:18.400 ,1,0,0.,24.0,0.,24.0,0.,24.0,0.,24.0
1979-08-07 10:25:42.400 ,2,1,0.,24.0,0.,24.0,0.,24.0,0.,24.0
1979-08-07 10:26:06.400 ,2,0,0.,24.0,0.,24.0,0.,24.0,0.,24.0
1979-08-07 10:26:30.400 ,3,1,0.,24.0,0.,24.0,0.,24.0,0.,24.0
1979-08-07 10:26:54.400 ,3,0,0.,24.0,0.,24.0,0.,24.0,0.,24.0
1979-08-07 10:27:18.400 ,4,1,0.,24.0,0.,24.0,0.,24.0,0.,24.0
1979-08-07 10:27:42.400 ,4,0,0.,24.0,0.,24.0,0.,24.0,0.,24.0
1979-08-07 10:28:06.400 ,5,1,0.,24.0,0.,24.0,0.,24.0,0.,24.0
1979-08-07 10:28:30.400 ,5,0,0.,24.0,0.,24.0,0.,24.0,0.,24.0
1979-08-07 10:28:54.400 ,6,1,0.,24.0,0.,24.0,0.,24.0,0.,24.0
1979-08-07 10:29:18.400 ,6,0,0.,24.0,0.,24.0,0.,24.0,0.,24.0
1979-08-07 10:29:42.400 ,7,1,0.,24.0,0.,24.0,0.,24.0,0.,24.0
1979-08-07 10:30:06.400 ,7,0,0.,24.0,0.,24.0,0.,24.0,0.,24.0
1979-08-07 10:30:30.400 ,7,1,0.,24.0,0.,24.0,0.,24.0,0.,24.0
1979-08-07 10:30:54.400 ,7,0,0.,24.0,0.,24.0,0.,24.0,0.,24.0
1979-08-07 10:31:18.400 ,6,1,0.,24.0,0.,24.0,0.,24.0,0.,24.0
1979-08-07 10:31:42.400 ,6,0,0.,24.0,0.,24.0,0.,24.0,0.,24.0
1979-08-07 10:32:06.400 ,5,1,0.,24.0,0.,24.0,0.,24.0,0.,24.0
1979-08-07 10:32:30.400 ,5,0,0.,24.0,0.,24.0,0.,24.0,0.,24.0
1979-08-07 10:32:54.400 ,4,1,0.,24.0,0.,24.0,0.,24.0,0.,24.0
1979-08-07 10:33:18.400 ,4,0,0.,24.0,0.,24.0,0.,24.0,0.,24.0
1979-08-07 10:33:42.400 ,3,1,0.,24.0,0.,24.0,0.,24.0,0.,24.0
1979-08-07 10:34:06.400 ,3,0,0.,24.0,0.,24.0,0.,24.0,0.,24.0
1979-08-07 10:34:30.400 ,2,1,0.,24.0,0.,24.0,0.,24.0,0.,24.0
1979-08-07 10:34:54.400 ,2,0,0.,24.0,0.,24.0,0.,24.0,0.,24.0
1979-08-07 10:35:18.400 ,1,1,0.,24.0,0.,24.0,0.,24.0,0.,24.0
1979-08-07 10:35:42.400 ,1,0,0.,24.0,0.,24.0,0.,24.0,0.,24.0
1979-08-07 10:36:06.400 ,0,1,0.,24.0,0.,24.0,0.,24.0,0.,24.0
1979-08-07 10:36:30.400 ,0,0,0.,24.0,0.,24.0,0.,24.0,0.,24.0
1979-08-07 10:36:54.400 ,0,1,0.,24.0,0.,24.0,0.,24.0,0.,24.0
1979-08-07 10:37:18.400 ,0,0,0.,24.0,0.,24.0,0.,24.0,0.,24.0
1979-08-07 10:37:42.400 ,1,1,0.,24.0,0.,24.0,0.,24.0,0.,24.0
1979-08-07 10:38:06.400 ,1,0,0.,24.0,0.,24.0,0.,24.0,0.,24.0
1979-08-07 10:38:30.400 ,2,1,0.,24.0,0.,24.0,0.,24.0,0.,24.0
1979-08-07 10:38:54.400 ,2,0,0.,24.0,0.,24.0,0.,24.0,0.,24.0
1979-08-07 10:39:18.400 ,3,1,0.,24.0,0.,24.0,0.,24.0,0.,24.0
1979-08-07 10:39:42.400 ,3,0,0.,24.0,0.,24.0,0.,24.0,0.,24.0
1979-08-07 10:40:06.400 ,4,1,0.,24.0,0.,24.0,0.,24.0,0.,24.0
1979-08-07 10:40:30.400 ,4,0,0.,24.0,0.,24.0,0.,24.0,0.,24.0
1979-08-07 10:40:54.400 ,5,1,0.,24.0,0.,24.0,0.,24.0,0.,24.0
1979-08-07 10:41:18.400 ,5,0,0.,24.0,0.,24.0,0.,24.0,0.,24.0
1979-08-07 10:41:42.400 ,6,1,1.,24.0,0.,24.0,0.,24.0,0.,24.0
1979-08-07 10:42:06.400 ,6,0,0.,24.0,0.,24.0,0.,24.0,0.,24.0
1979-08-07 10:42:30.400 ,7,0,0.,24.0,0.,24.0,0.,24.0,0.,24.0
1979-08-07 10:42:54.400 ,7,0,0.,24.0,0.,24.0,0.,24.0,0.,24.0
1979-08-07 10:43:18.400 ,5,1,0.,24.0,0.,24.0,0.,24.0,0.,24.0
1979-08-07 10:43:42.400 ,1,1,0.,24.0,0.,24.0,0.,24.0,0.,24.0
1979-08-07 10:44:06.400 ,2,1,0.,24.0,0.,24.0,0.,24.0,0.,24.0
1979-08-07 10:44:30.400 ,6,1,0.,24.0,0.,24.0,0.,24.0,0.,24.0
1979-08-07 10:44:54.400 ,5,1,0.,24.0,0.,24.0,0.,24.0,0.,24.0
1979-08-07 10:45:18.400 ,1,1,0.,24.0,0.,24.0,0.,24.0,0.,24.0
1979-08-07 10:45:42.400 ,2,1,0.,24.0,0.,24.0,0.,24.0,0.,24.0
1979-08-07 10:46:06.400 ,6,1,0.,24.0,0.,24.0,0.,24.0,0.,24.0
1979-08-07 10:46:30.400 ,5,1,0.,24.0,0.,24.0,0.,24.0,0.,24.0
1979-08-07 10:46:54.400 ,1,1,0.,24.0,0.,24.0,0.,24.0,0.,24.0
1979-08-07 10:47:18.400 ,2,1,0.,24.0,0.,24.0,0.,24.0,0.,24.0
1979-08-07 10:47:42.400 ,6,1,0.,24.0,0.,24.0,0.,24.0,0.,24.0
1979-08-07 10:48:06.400 ,5,1,0.,24.0,0.,24.0,0.,24.0,0.,24.0
1979-08-07 10:48:30.400 ,1,1,0.,24.0,0.,24.0,0.,24.0,0.,24.0
1979-08-07 10:48:54.400 ,2,1,0.,24.0,0.,24.0,0.,24.0,0.,24.0
1979-08-07 10:49:18.400 ,6,1,0.,24.0,0.,24.0,0.,24.0,0.,24.0
1979-08-07 10:49:42.400 ,5,1,0.,24.0,0.,24.0,0.,24.0,0.,24.0
1979-08-07 10:50:06.400 ,1,1,0.,24.0,0.,24.0,0.,24.0,0.,24.0
1979-08-07 10:50:30.400 ,2,1,0.,24.0,0.,24.0,0.,24.0,0.,24.0
1979-08-07 10:50:54.400 ,6,1,0.,24.0,0.,24.0,0.,24.0,0.,24.0
1979-08-07 10:51:18.400 ,5,1,0.,24.0,0.,24.0,0.,24.0,0.,24.0
1979-08-07 10:51:42.400 ,1,1,0.,24.0,0.,24.0,0.,24.0,0.,24.0
1979-08-07 10:52:06.400 ,2,1,0.,24.0,0.,24.0,0.,24.0,0.,24.0
1979-08-07 10:52:30.400 ,6,1,0.,24.0,0.,24.0,0.,24.0,0.,24.0
1979-08-07 10:52:54.400 ,5,1,0.,24.0,0.,24.0,0.,24.0,0.,24.0
1979-08-07 10:53:18.400 ,1,1,0.,24.0,0.,24.0,0.,24.0,0.,24.0
1979-08-07 10:53:42.400 ,0,0,0.,24.0,0.,24.0,0.,24.0,0.,24.0
1979-08-07 10:54:06.400 ,0,0,0.,24.0,0.,24.0,0.,24.0,0.,24.0
1979-08-07 10:54:30.400 ,5,1,0.,24.0,0.,24.0,0.,24.0,0.,24.0
1979-08-07 10:54:54.400 ,5,0,0.,24.0,0.,24.0,0.,24.0,0.,24.0
1979-08-07 10:55:18.400 ,4,1,0.,24.0,0.,24.0,0.,24.0,0.,24.0
1979-08-07 10:55:42.400 ,4,0,0.,24.0,0.,24.0,0.,24.0,0.,24.0
1979-08-07 10:56:06.400 ,3,1,0.,24.0,0.,24.0,0.,24.0,0.,24.0
1979-08-07 10:56:30.400 ,3,0,0.,24.0,0.,24.0,0.,24.0,0.,24.0
1979-08-07 10:56:54.400 ,2,1,0.,24.0,0.,24.0,0.,24.0,0.,24.0
1979-08-07 10:57:18.400 ,2,0,0.,24.0,0.,24.0,0.,24.0,0.,24.0
1979-08-07 10:57:42.400 ,1,1,0.,24.0,0.,24.0,0.,24.0,0.,24.0
1979-08-07 10:58:06.400 ,1,0,0.,24.0,0.,24.0,0.,24.0,0.,24.0
1979-08-07 10:58:30.400 ,0,1,0.,24.0,0.,24.0,0.,24.0,0.,24.0
1979-08-07 10:58:54.400 ,0,0,0.,24.0,0.,24.0,0.,24.0,0.,24.0
1979-08-07 10:59:18.400 ,0,1,0.,24.0,0.,24.0,0.,24.0,0.,24.0
1979-08-07 10:59:42.400 ,0,0,0.,24.0,0.,24.0,0.,24.0,0.,24.0
1979-08-07 11:00:06.400 ,1,1,0.,24.0,0.,24.0,0.,24.0,0.,24.0
1979-08-07 11:00:30.400 ,1,0,0.,24.0,0.,24.0,0.,24.0,0.,24.0
1979-08-07 11:00:54.400 ,2,1,0.,24.0,0.,24.0,0.,24.0,0.,24.0
1979-08-07 11:01:18.400 ,2,0,0.,24.0,0.,24.0,0.,24.0,0.,24.0
1979-08-07 11:01:42.400 ,3,1,0.,24.0,0.,24.0,0.,24.0,0.,24.0
1979-08-07 11:02:06.400 ,3,0,0.,24.0,0.,24.0,0.,24.0,0.,24.0
1979-08-07 11:02:30.400 ,4,1,0.,24.0,0.,24.0,0.,24.0,0.,24.0
1979-08-07 11:02:54.400 ,4,0,0.,24.0,0.,24.0,0.,24.0,0.,24.0
1979-08-07 11:03:18.400 ,5,1,0.,24.0,0.,24.0,0.,24.0,0.,24.0
1979-08-07 11:03:42.400 ,5,0,0.,24.0,0.,24.0,0.,24.0,0.,24.0
1979-08-07 11:04:06.400 ,6,1,0.,24.0,0.,24.0,0.,24.0,0.,24.0
1979-08-07 11:04:30.400 ,6,0,0.,24.0,0.,24.0,0.,24.0,0.,24.0
1979-08-07 11:04:54.400 ,7,1,0.,24.0,0.,24.0,0.,24.0,0.,24.0
1979-08-07 11:05:18.400 ,7,0,0.,24.0,0.,24.0,0.,24.0,0.,24.0
1979-08-07 11:05:42.400 ,7,1,0.,24.0,0.,24.0,0.,24.0,0.,24.0
1979-08-07 11:06:06.400 ,7,0,0.,24.0,0.,24.0,0.,24.0,0.,24.0
1979-08-07 11:06:30.400 ,6,1,0.,24.0,0.,24.0,0.,24.0,0.,24.0
1979-08-07 11:06:54.400 ,6,0,0.,24.0,0.,24.0,0.,24.0,0.,24.0
1979-08-07 11:07:18.400 ,5,1,0.,24.0,0.,24.0,0.,24.0,0.,24.0
1979-08-07 11:07:42.400 ,5,0,0.,24.0,0.,24.0,0.,24.0,0.,24.0
1979-08-07 11:08:06.400 ,4,1,0.,24.0,0.,24.0,0.,24.0,0.,24.0
1979-08-07 11:08:30.400 ,4,0,0.,24.0,0.,24.0,0.,24.0,0.,24.0
1979-08-07 11:08:54.400 ,3,1,0.,24.0,0.,24.0,0.,24.0,0.,24.0
1979-08-07 11:09:18.400 ,3,0,0.,24.0,0.,24.0,0.,24.0,0.,24.0
1979-08-07 11:09:42.400 ,2,1,0.,24.0,0.,24.0,0.,24.0,0.,24.0
1979-08-07 11:10:06.400 ,2,0,0.,24.0,0.,24.0,0.,24.0,0.,24.0
1979-08-07 11:10:30.400 ,1,1,0.,24.0,0.,24.0,0.,24.0,0.,24.0
1979-08-07 11:10:54.400 ,1,0,0.,24.0,0.,24.0,0.,24.0,0.,24.0
1979-08-07 11:11:18.400 ,0,1,0.,24.0,0.,24.0,0.,24.0,0.,24.0
1979-08-07 11:11:42.400 ,0,0,0.,24.0,0.,24.0,0.,24.0,0.,24.0
1979-08-07 11:12:06.400 ,0,1,0.,24.0,0.,24.0,0.,24.0,0.,24.0
1979-08-07 11:12:30.400 ,0,0,0.,24.0,0.,24.0,0.,24.0,0.,24.0
1979-08-07 11:12:54.400 ,1,1,0.,24.0,0.,24.0,0.,24.0,0.,24.0
1979-08-07 11:13:18.400 ,1,0,0.,24.0,0.,24.0,0.,24.0,0.,24.0
1979-08-07 11:13:42.400 ,2,1,0.,24.0,0.,24.0,0.,24.0,0.,24.0
1979-08-07 11:14:06.400 ,2,0,0.,24.0,0.,24.0,0.,24.0,0.,24.0
1979-08-07 11:14:30.400 ,3,1,0.,24.0,0.,24.0,0.,24.0,0.,24.0
1979-08-07 11:14:54.400 ,3,0,0.,24.0,0.,24.0,0.,24.0,0.,24.0
1979-08-07 11:15:18.400 ,4,1,0.,24.0,0.,24.0,0.,24.0,0.,24.0
1979-08-07 11:15:42.400 ,4,0,0.,24.0,0.,24.0,0.,24.0,0.,24.0
1979-08-07 11:16:06.400 ,5,1,1.,24.0,0.,24.0,0.,24.0,0.,24.0
1979-08-07 11:16:30.400 ,5,0,0.,24.0,0.,24.0,0.,24.0,0.,24.0
1979-08-07 11:16:54.400 ,6,1,0.,24.0,0.,24.0,0.,24.0,0.,24.0
1979-08-07 11:17:18.400 ,6,0,0.,24.0,0.,24.0,0.,24.0,0.,24.0
1979-08-07 11:17:42.400 ,7,1,0.,24.0,0.,24.0,0.,24.0,0.,24.0
1979-08-07 11:18:06.400 ,7,0,0.,24.0,0.,24.0,0.,24.0,0.,24.0
1979-08-07 11:18:30.400 ,7,1,0.,24.0,0.,24.0,0.,24.0,0.,24.0
1979-08-07 11:18:54.400 ,7,0,0.,24.0,0.,24.0,0.,24.0,0.,24.0
1979-08-07 11:19:18.400 ,6,1,0.,24.0,0.,24.0,0.,24.0,0.,24.0
1979-08-07 11:19:42.400 ,6,0,0.,24.0,0.,24.0,0.,24.0,0.,24.0
1979-08-07 11:20:06.400 ,5,1,0.,24.0,0.,24.0,0.,24.0,0.,24.0
1979-08-07 11:20:30.400 ,5,0,0.,24.0,0.,24.0,0.,24.0,0.,24.0
1979-08-07 11:20:54.400 ,4,1,0.,24.0,0.,24.0,0.,24.0,0.,24.0
1979-08-07 11:21:18.400 ,4,0,0.,24.0,0.,24.0,0.,24.0,0.,24.0
1979-08-07 11:21:42.400 ,3,1,0.,24.0,0.,24.0,0.,24.0,0.,24.0
1979-08-07 11:22:06.400 ,3,0,0.,24.0,0.,24.0,0.,24.0,0.,24.0
1979-08-07 11:22:30.400 ,2,1,1.,24.0,0.,24.0,0.,24.0,0.,24.0
1979-08-07 11:22:54.400 ,2,0,0.,24.0,0.,24.0,0.,24.0,0.,24.0
1979-08-07 11:23:18.400 ,1,1,0.,24.0,0.,24.0,0.,24.0,0.,24.0
1979-08-07 11:23:42.400 ,1,0,0.,24.0,0.,24.0,0.,24.0,0.,24.0
1979-08-07 11:24:06.400 ,0,1,0.,24.0,0.,24.0,0.,24.0,0.,24.0
1979-08-07 11:24:30.400 ,0,0,0.,24.0,0.,24.0,0.,24.0,0.,24.0
1979-08-07 11:24:54.400 ,0,1,0.,24.0,0.,24.0,0.,24.0,0.,24.0
1979-08-07 11:25:18.400 ,0,0,0.,24.0,0.,24.0,0.,24.0,0.,24.0
1979-08-07 11:25:42.400 ,1,1,0.,24.0,0.,24.0,0.,24.0,0.,24.0
1979-08-07 11:26:06.400 ,1,0,0.,24.0,0.,24.0,0.,24.0,0.,24.0
1979-08-07 11:26:30.400 ,2,1,0.,24.0,0.,24.0,0.,24.0,0.,24.0
1979-08-07 11:26:54.400 ,2,0,0.,24.0,0.,24.0,0.,24.0,0.,24.0
1979-08-07 11:27:18.400 ,3,1,0.,24.0,0.,24.0,0.,24.0,0.,24.0
1979-08-07 11:27:42.400 ,3,0,0.,24.0,0.,24.0,0.,24.0,0.,24.0
1979-08-07 11:28:06.400 ,4,1,0.,24.0,0.,24.0,0.,24.0,0.,24.0
1979-08-07 11:28:30.400 ,4,0,0.,24.0,0.,24.0,0.,24.0,0.,24.0
1979-08-07 11:28:54.400 ,5,1,0.,24.0,0.,24.0,0.,24.0,0.,24.0
1979-08-07 11:29:18.400 ,5,0,0.,24.0,0.,24.0,0.,24.0,0.,24.0
1979-08-07 11:29:42.400 ,6,1,0.,24.0,0.,24.0,0.,24.0,0.,24.0
1979-08-07 11:30:06.400 ,6,0,0.,24.0,0.,24.0,0.,24.0,0.,24.0
1979-08-07 11:30:30.400 ,7,0,0.,24.0,0.,24.0,0.,24.0,0.,24.0
1979-08-07 11:30:54.400 ,7,0,0.,24.0,0.,24.0,0.,24.0,0.,24.0
1979-08-07 11:31:18.400 ,5,1,0.,24.0,0.,24.0,0.,24.0,0.,24.0
1979-08-07 11:31:42.400 ,1,1,0.,24.0,0.,24.0,0.,24.0,0.,24.0
1979-08-07 11:32:06.400 ,2,1,0.,24.0,0.,24.0,0.,24.0,0.,24.0
1979-08-07 11:32:30.400 ,6,1,0.,24.0,0.,24.0,0.,24.0,0.,24.0
1979-08-07 11:32:54.400 ,5,1,0.,24.0,0.,24.0,0.,24.0,0.,24.0
1979-08-07 11:33:18.400 ,1,1,0.,24.0,0.,24.0,0.,24.0,0.,24.0
1979-08-07 11:33:42.390 ,2,1,0.,24.0,0.,24.0,0.,24.0,0.,24.0
1979-08-07 11:34:06.390 ,6,1,0.,24.0,0.,24.0,0.,24.0,0.,24.0
1979-08-07 11:34:30.390 ,5,1,0.,24.0,0.,24.0,0.,24.0,0.,24.0
1979-08-07 11:34:54.390 ,1,1,0.,24.0,0.,24.0,0.,24.0,0.,24.0